EW0122 Weather Reports


time (UTC)temp
C
wind
direction
speed
KPH
gust
KPH
rain 1hr
cm
rain 24hr
cm
rain mn
cm
humidity
%
barometer
mb
20260504081531 7 120 0.0 6.4 0.00 0.00 0.00 64 1009.5
20260504081011 7 146 0.0 6.4 0.00 0.00 0.00 64 1009.6
20260504080512 7 160 1.6 6.4 0.00 0.00 0.00 64 1009.5
20260504050511 8 0 0.0 1.6 0.00 0.00 0.00 62 1010.1
20260504045513 8 0 0.0 1.6 0.00 0.00 0.00 61 1010.3
20260504045011 8 0 0.0 1.6 0.00 0.00 0.00 61 1010.3
20260504044528 8 0 0.0 1.6 0.00 0.00 0.00 61 1010.3
20260504044013 8 0 0.0 1.6 0.00 0.00 0.00 61 1010.6
20260504043515 8 0 0.0 1.6 0.00 0.00 0.00 60 1010.7
20260504043028 8 0 0.0 1.6 0.00 0.00 0.00 60 1010.9
20260504042513 8 0 0.0 0.0 0.00 0.00 0.00 59 1010.8
20260504042011 8 0 0.0 0.0 0.00 0.00 0.00 59 1010.8
20260504041540 8 0 0.0 0.0 0.00 0.00 0.00 60 1010.8
20260504041012 8 0 0.0 0.0 0.00 0.00 0.00 58 1010.8
20260504040512 8 0 0.0 0.0 0.00 0.00 0.00 58 1010.7
20260504040039 8 0 0.0 0.0 0.00 0.00 0.00 59 1010.7
20260504035513 8 0 0.0 0.0 0.00 0.00 0.00 58 1010.6
20260504035013 8 0 0.0 0.0 0.00 0.00 0.00 58 1010.6
20260504034529 8 0 0.0 0.0 0.00 0.00 0.00 57 1010.4
20260504034012 8 0 0.0 1.6 0.00 0.00 0.00 57 1010.3
20260504033513 8 0 0.0 1.6 0.00 0.00 0.00 57 1010.4
20260504033030 8 0 0.0 1.6 0.00 0.00 0.00 56 1010.3
20260504032515 8 0 0.0 1.6 0.00 0.00 0.00 56 1010.3
20260504032013 8 0 0.0 1.6 0.00 0.00 0.00 57 1010.3
20260504031528 7 0 0.0 1.6 0.00 0.00 0.00 57 1010.3
20260504031013 7 0 0.0 1.6 0.00 0.00 0.00 57 1010.3
20260504030513 7 0 0.0 0.0 0.00 0.00 0.00 57 1010.2
20260504030035 7 0 0.0 0.0 0.00 0.00 0.00 56 1010.3
20260504025511 7 0 0.0 0.0 0.00 0.00 0.00 56 1010.2
20260504025012 7 0 0.0 0.0 0.00 0.00 0.00 56 1010.2
20260504024531 7 0 0.0 0.0 0.00 0.00 0.00 55 1010.2
20260504024013 7 0 0.0 0.0 0.00 0.00 0.00 54 1010.1
20260504023514 7 0 0.0 0.0 0.00 0.00 0.00 54 1010.2
20260504023031 7 0 0.0 0.0 0.00 0.00 0.00 54 1010.2
20260504022513 7 0 0.0 0.0 0.00 0.00 0.00 53 1010.2
20260504022013 8 0 0.0 0.0 0.00 0.00 0.00 52 1010.2
20260504021528 8 0 0.0 0.0 0.00 0.00 0.00 51 1010.2
20260504021012 8 0 0.0 0.0 0.00 0.00 0.00 50 1010.3
20260504020514 8 0 0.0 0.0 0.00 0.00 0.00 50 1010.4
20260504020036 8 0 0.0 0.0 0.00 0.00 0.00 50 1010.2
20260504015513 8 0 0.0 0.0 0.00 0.00 0.00 50 1010.2
20260504015013 8 0 0.0 0.0 0.00 0.00 0.00 49 1010.2
20260504014535 8 0 0.0 0.0 0.00 0.00 0.00 49 1010.2
20260504014013 8 0 0.0 0.0 0.00 0.00 0.00 49 1010.1
20260504013514 8 0 0.0 0.0 0.00 0.00 0.00 48 1010.2
20260504013042 9 0 0.0 1.6 0.00 0.00 0.00 48 1010.1
20260504012512 9 0 0.0 1.6 0.00 0.00 0.00 46 1010.1
20260504012014 9 0 0.0 1.6 0.00 0.00 0.00 46 1010.0
20260504011528 9 0 0.0 1.6 0.00 0.00 0.00 47 1010.0
20260504011012 10 0 0.0 1.6 0.00 0.00 0.00 45 1010.0
20260504010516 10 0 0.0 1.6 0.00 0.00 0.00 45 1010.0
20260504010030 10 0 0.0 3.2 0.00 0.00 0.00 44 1009.9
20260504005512 10 0 0.0 8.0 0.00 0.00 0.00 43 1009.9
20260504005012 10 0 0.0 8.0 0.00 0.00 0.00 43 1009.9
20260504004528 10 238 1.6 9.7 0.00 0.00 0.00 42 1009.9
20260504004013 10 248 1.6 9.7 0.00 0.00 0.00 42 1009.7
20260504003513 10 242 0.0 4.8 0.00 0.00 0.00 42 1009.8
20260504003032 10 0 0.0 4.8 0.00 0.00 0.00 41 1009.9
20260504002513 11 238 0.0 6.4 0.00 0.00 0.00 41 1009.7
20260504002012 11 259 1.6 14.5 0.00 0.00 0.00 41 1009.6
20260504001535 11 248 4.8 14.5 0.00 0.00 0.00 40 1009.6
20260504001012 11 245 3.2 9.7 0.00 0.00 0.00 40 1009.6
20260504000513 11 225 3.2 9.7 0.00 0.00 0.00 39 1009.5
20260504000029 11 245 3.2 17.7 0.00 0.00 0.00 39 1009.5
20260503235511 11 301 3.2 17.7 0.00 0.00 0.00 39 1009.4
20260503235014 11 290 6.4 17.7 0.00 0.00 0.00 38 1009.3
20260503234529 11 281 4.8 19.3 0.00 0.00 0.00 37 1009.3
20260503234014 11 316 6.4 20.9 0.00 0.00 0.00 37 1009.2
20260503233513 11 249 9.7 20.9 0.00 0.00 0.00 36 1009.1
20260503233030 11 280 6.4 20.9 0.00 0.00 0.00 36 1009.1
20260503232517 12 249 6.4 19.3 0.00 0.00 0.00 35 1009.0
20260503232011 12 281 4.8 19.3 0.00 0.00 0.00 34 1008.9
20260503231528 12 229 3.2 12.9 0.00 0.00 0.00 34 1008.8
20260503231013 12 243 1.6 12.9 0.00 0.00 0.00 34 1008.7
20260503230514 12 270 4.8 19.3 0.00 0.00 0.00 33 1008.8
20260503230037 12 238 6.4 24.1 0.00 0.00 0.00 32 1008.6
20260503225512 12 277 6.4 24.1 0.00 0.00 0.00 31 1008.5
20260503225013 12 247 3.2 16.1 0.00 0.00 0.00 32 1008.3
20260503224530 13 314 6.4 17.7 0.00 0.00 0.00 31 1008.3
20260503224016 13 297 4.8 19.3 0.00 0.00 0.00 31 1008.4
20260503223516 13 248 6.4 19.3 0.00 0.00 0.00 31 1008.7
20260503223028 13 236 8.0 19.3 0.00 0.00 0.00 30 1008.5
20260503222512 13 194 4.8 16.1 0.00 0.00 0.00 29 1008.3
20260503222012 13 322 4.8 16.1 0.00 0.00 0.00 29 1008.3
20260503221530 13 250 4.8 19.3 0.00 0.00 0.00 29 1008.5
20260503221011 13 255 6.4 19.3 0.00 0.00 0.00 28 1008.5
20260503220513 13 242 8.0 24.1 0.00 0.00 0.00 29 1008.6
20260503220030 13 243 8.0 24.1 0.00 0.00 0.00 29 1008.5
20260503215514 12 312 6.4 22.5 0.00 0.00 0.00 28 1008.5
20260503215013 12 290 8.0 22.5 0.00 0.00 0.00 27 1008.5
20260503214539 12 286 9.7 22.5 0.00 0.00 0.00 27 1008.6
20260503214013 12 319 6.4 29.0 0.00 0.00 0.00 28 1008.5
20260503213514 12 323 4.8 29.0 0.00 0.00 0.00 28 1008.4
20260503213031 12 307 8.0 29.0 0.00 0.00 0.00 28 1008.3
20260503212513 12 315 8.0 29.0 0.00 0.00 0.00 28 1008.4
20260503212015 12 330 9.7 29.0 0.00 0.00 0.00 28 1008.2
20260503211532 12 239 8.0 25.7 0.00 0.00 0.00 28 1008.3
20260503211018 12 259 8.0 25.7 0.00 0.00 0.00 30 1008.5
20260503210510 12 304 8.0 20.9 0.00 0.00 0.00 31 1008.2
20260503210028 12 256 8.0 19.3 0.00 0.00 0.00 30 1008.2
20260503205513 12 260 4.8 24.1 0.00 0.00 0.00 31 1008.3
20260503205013 12 271 8.0 24.1 0.00 0.00 0.00 31 1008.5
20260503204529 12 273 4.8 16.1 0.00 0.00 0.00 34 1008.4
20260503204013 12 224 3.2 22.5 0.00 0.00 0.00 33 1008.5
20260503203516 12 307 8.0 22.5 0.00 0.00 0.00 33 1008.7
20260503203035 12 307 4.8 17.7 0.00 0.00 0.00 33 1008.6
20260503202511 12 253 8.0 17.7 0.00 0.00 0.00 33 1008.7
20260503202015 12 254 4.8 17.7 0.00 0.00 0.00 34 1008.7
20260503201530 12 205 8.0 14.5 0.00 0.00 0.00 34 1008.8
20260503201013 11 281 4.8 14.5 0.00 0.00 0.00 35 1008.8
20260503200511 11 231 4.8 16.1 0.00 0.00 0.00 36 1009.1
20260503200029 11 280 6.4 16.1 0.00 0.00 0.00 35 1008.9
20260503195511 11 299 4.8 19.3 0.00 0.00 0.00 38 1009.1
20260503195017 11 297 3.2 19.3 0.00 0.00 0.00 37 1009.0
20260503194528 11 307 9.7 19.3 0.00 0.00 0.00 37 1009.1
20260503194018 11 302 4.8 16.1 0.00 0.00 0.00 37 1009.3
20260503193513 11 323 6.4 20.9 0.00 0.00 0.00 37 1009.3
20260503193042 11 256 8.0 20.9 0.00 0.00 0.00 36 1009.3
20260503192514 11 337 4.8 20.9 0.00 0.00 0.00 37 1009.4
20260503192011 11 281 8.0 20.9 0.00 0.00 0.00 37 1009.5
20260503191559 11 273 8.0 20.9 0.00 0.00 0.00 37 1009.4
20260503191010 11 68 6.4 24.1 0.00 0.00 0.00 37 1009.4
20260503190512 11 260 4.8 27.4 0.00 0.00 0.00 38 1009.5
20260503190035 11 235 11.3 27.4 0.00 0.00 0.00 37 1009.6
20260503185516 11 276 8.0 27.4 0.00 0.00 0.00 38 1009.7
20260503185013 11 282 6.4 20.9 0.00 0.00 0.00 39 1009.8
20260503184529 11 328 4.8 16.1 0.00 0.00 0.00 39 1009.8
20260503184011 11 259 6.4 17.7 0.00 0.00 0.00 39 1009.7
20260503183515 11 224 6.4 22.5 0.00 0.00 0.00 40 1009.9
20260503183029 10 307 4.8 24.1 0.00 0.00 0.00 41 1010.0
20260503182512 10 302 11.3 24.1 0.00 0.00 0.00 40 1010.0
20260503182014 10 328 8.0 25.7 0.00 0.00 0.00 40 1010.1
20260503181541 10 293 9.7 25.7 0.00 0.00 0.00 40 1010.1
20260503181014 11 315 6.4 17.7 0.00 0.00 0.00 41 1010.0
20260503180514 10 248 8.0 24.1 0.00 0.00 0.00 42 1010.1
20260503180030 10 321 3.2 24.1 0.00 0.00 0.00 43 1010.0
20260503175511 10 240 9.7 22.5 0.00 0.00 0.00 42 1010.2
20260503175016 10 262 6.4 20.9 0.00 0.00 0.00 43 1010.0
20260503174532 9 224 8.0 20.9 0.00 0.00 0.00 43 1010.2
20260503174016 9 308 8.0 17.7 0.00 0.00 0.00 44 1010.3
20260503173513 9 284 4.8 19.3 0.00 0.00 0.00 45 1010.2
20260503173051 9 272 9.7 19.3 0.00 0.00 0.00 44 1010.3
20260503172516 9 346 4.8 14.5 0.00 0.00 0.00 45 1010.3
20260503172501 9 310 6.4 14.5 0.00 0.00 0.00 44 1010.2
20260503171528 9 307 4.8 16.1 0.00 0.00 0.00 45 1010.3
20260503171013 9 306 4.8 20.9 0.00 0.00 0.00 43 1010.2
20260503170512 9 293 3.2 20.9 0.00 0.00 0.00 44 1010.2
20260503160118 10 295 9.7 24.1 0.00 0.00 0.00 46 1010.2
20260503150511 8 307 8.0 22.5 0.00 0.00 0.00 51 1010.4
20260503131014 6 308 4.8 19.3 0.00 0.00 0.00 63 1011.1
20260503130513 6 303 4.8 19.3 0.00 0.00 0.00 63 1011.1
20260503110523 4 291 1.6 4.8 0.00 0.00 0.00 74 1010.4